Voltar ao catálogo

STARLINK-4793

AtivoComunicaçõesVLEO
NORAD 53867·PAYLOAD·🇺🇸 United States

Lançado Sep 19, 2022 de Cape Canaveral Space Force Station

Loading…

Próximas Passagens (próximas 24 horas)

TLE

AtualizadoSource: CelesTrak SupGP

Época: Sep 14, 2026, 21:18 UTC

1 53867C 22114BB  26257.88798611  .00110940  00000+0  32108-2 0  2576
2 53867  53.1859 120.2545 0001804  85.5193 276.1082 15.34983512    13

Acompanhe STARLINK-4793 em tempo real com AllMySat

Download on the App Store